Вернуться в каталог

COSMOS 886 DEB *

АктивенLEO
NORAD 13943·DEBRIS·🇷🇺 Russia

Запущен Dec 27, 1976 с Baikonur Cosmodrome

Loading…

Ближайшие Пролёты (ближайшие 24 часа)

TLE

СвежийSource: Space-Track

Эпоха: Sep 14, 2026, 03:56 UTC

1 13943U 76126BM  26257.16428654  .00003258  00000-0  10794-2 0  9991
2 13943  65.5748  48.0023 0067122 248.0539 287.0384 14.37943006156105

Отслеживайте COSMOS 886 DEB * в реальном времени с AllMySat

Download on the App Store